Weather History for Provincetown, MA

Change the Weather History Date:

Monday, February 11, 2013

  Actual Average Record
Temperature  
Mean Temperature 34 °F -  
Max Temperature 46 °F 35 °F 55 °F (2009)
Min Temperature 23 °F 24 °F 14 °F (2008)
Degree Days  
Heating Degree Days 30    
Moisture  
Dew Point 33 °F    
Average Humidity 86    
Maximum Humidity 100    
Minimum Humidity 69    
Precipitation  
Precipitation 0.02 in - - ()
Sea Level Pressure  
Sea Level Pressure 30.03 in    
Wind  
Wind Speed 8 mph (South)    
Max Wind Speed 17 mph    
Max Gust Speed 26 mph    
Visibility 8 miles    
Events      
Averages and records for this station are not official NWS values.
T = Trace of Precipitation, MM = Missing Value Source: NWS Daily Summary

Daily Weather History Graph

Daily Weather History Graph

Search for Another Location

Airport:

Trip Planner

Search our weather history database for the weather conditions in past years. The results will help you decide how hot, cold, wet, or windy it might be!

Date:

Astronomy

Feb. 11, 2013 Rise Set
Actual Time 6:41 AM EST 5:08 PM EST
Civil Twilight 6:13 AM EST 5:37 PM EST
Nautical Twilight 5:40 AM EST 6:10 PM EST
Astronomical Twilight 5:07 AM EST 6:43 PM EST
Moon 7:02 AM EST (2/11) 7:05 PM EST (2/11)
Length of Visible Light 11h 24m
Length of Day
10h 26m
Waxing Crescent, 3% of the Moon is Illuminated
Feb 11
Waxing Crescent
Feb 17
First Quarter
Feb 25
Full
Mar 4
Last Quarter
Mar 11
New

Hourly Weather History & Observations

Time (EST) Temp. Windchill Dew Point Humidity Pressure Visibility Wind Dir Wind Speed Gust Speed Precip Events Conditions
12:15 AM 26.6 °F 20.0 °F 21.2 °F 80% 30.37 in 10.0 mi SW 5.8 mph - N/A   Unknown
12:35 AM 24.8 °F 19.1 °F 21.2 °F 86% 30.36 in 10.0 mi SSW 4.6 mph - N/A   Unknown
12:55 AM 24.8 °F 19.1 °F 24.8 °F 100% 30.37 in 10.0 mi SSW 4.6 mph - N/A   Unknown
1:15 AM 26.6 °F 18.2 °F 19.4 °F 74% 30.36 in 10.0 mi SW 8.1 mph - N/A   Unknown
1:35 AM 26.6 °F 20.0 °F 23.0 °F 86% 30.35 in 10.0 mi SW 5.8 mph - N/A   Unknown
1:55 AM 23.0 °F 15.8 °F 17.6 °F 80% 30.35 in 10.0 mi SW 5.8 mph - N/A   Unknown
2:15 AM 28.4 °F 21.2 °F 19.4 °F 69% 30.33 in 10.0 mi SSW 6.9 mph - N/A   Unknown
2:35 AM 28.4 °F 20.4 °F 23.0 °F 80% 30.32 in 10.0 mi SW 8.1 mph - N/A   Unknown
2:55 AM 30.2 °F 21.9 °F 24.8 °F 80% 30.32 in 10.0 mi SW 9.2 mph - N/A   Unknown
3:15 AM 30.2 °F 22.6 °F 24.8 °F 80% 30.31 in 10.0 mi SW 8.1 mph - N/A   Unknown
3:35 AM 30.2 °F 22.6 °F 26.6 °F 86% 30.31 in 10.0 mi SW 8.1 mph - N/A   Unknown
3:55 AM 30.2 °F 21.9 °F 28.4 °F 93% 30.31 in 10.0 mi SSW 9.2 mph - N/A   Unknown
4:15 AM 30.2 °F 24.3 °F 26.6 °F 86% 30.30 in 10.0 mi South 5.8 mph - N/A   Unknown
4:35 AM 30.2 °F 24.3 °F 26.6 °F 86% 30.30 in 10.0 mi South 5.8 mph - N/A   Unknown
4:55 AM 30.2 °F 23.4 °F 28.4 °F 93% 30.29 in 10.0 mi South 6.9 mph - N/A   Unknown
5:15 AM 30.2 °F 23.4 °F 26.6 °F 86% 30.28 in 10.0 mi South 6.9 mph - N/A   Unknown
5:35 AM 32.0 °F 25.6 °F 26.6 °F 80% 30.28 in 10.0 mi South 6.9 mph - N/A   Unknown
5:55 AM 32.0 °F 24.8 °F 28.4 °F 87% 30.28 in 10.0 mi South 8.1 mph - N/A   Unknown
6:15 AM 33.8 °F 27.7 °F 26.6 °F 75% 30.28 in 10.0 mi South 6.9 mph - N/A   Unknown
6:55 AM 33.8 °F 27.0 °F 28.4 °F 81% 30.26 in 10.0 mi South 8.1 mph - N/A   Unknown
7:15 AM 33.8 °F 26.4 °F 28.4 °F 81% 30.25 in 10.0 mi South 9.2 mph - N/A   Unknown
7:35 AM 33.8 °F 25.8 °F 28.4 °F 81% 30.25 in 10.0 mi South 10.4 mph 16.1 mph N/A   Unknown
7:55 AM 33.8 °F 26.4 °F 30.2 °F 87% 30.23 in 10.0 mi South 9.2 mph - N/A   Unknown
8:15 AM 33.8 °F 25.8 °F 28.4 °F 81% 30.22 in 10.0 mi SSE 10.4 mph - N/A   Unknown
8:35 AM 35.6 °F 28.0 °F 30.2 °F 81% 30.21 in 10.0 mi SSE 10.4 mph - N/A   Unknown
8:55 AM 35.6 °F 28.6 °F 28.4 °F 75% 30.20 in 10.0 mi SSE 9.2 mph - 0.01 in   Overcast
9:15 AM 35.6 °F 29.2 °F 30.2 °F 81% 30.20 in 10.0 mi SSE 8.1 mph - 0.01 in   Overcast
9:35 AM 35.6 °F 27.5 °F 30.2 °F 81% 30.18 in 10.0 mi SSE 11.5 mph 16.1 mph 0.01 in   Overcast
9:55 AM 35.6 °F 27.5 °F 30.2 °F 81% 30.16 in 10.0 mi SSE 11.5 mph - 0.01 in   Overcast
10:15 AM 35.6 °F 28.6 °F 33.8 °F 93% 30.14 in 10.0 mi SSE 9.2 mph - N/A   Overcast
10:35 AM 35.6 °F 27.5 °F 33.8 °F 93% 30.11 in 10.0 mi SSE 11.5 mph 18.4 mph N/A   Overcast
10:55 AM 37.4 °F 29.3 °F 33.8 °F 87% 30.09 in 10.0 mi SSE 12.7 mph 18.4 mph N/A   Overcast
11:15 AM 37.4 °F 28.2 °F 33.8 °F 87% 30.06 in 10.0 mi SSE 16.1 mph 21.9 mph N/A   Overcast
11:35 AM 39.2 °F 31.2 °F 35.6 °F 87% 30.04 in 10.0 mi SSE 13.8 mph 20.7 mph N/A   Overcast
11:55 AM 39.2 °F 31.6 °F 35.6 °F 87% 30.01 in 10.0 mi SSE 12.7 mph 24.2 mph N/A   Overcast
12:15 PM 39.2 °F 30.5 °F 35.6 °F 87% 29.99 in 10.0 mi SSE 16.1 mph 25.3 mph N/A   Overcast
12:35 PM 39.2 °F 30.5 °F 37.4 °F 93% 29.96 in 10.0 mi SSE 16.1 mph 25.3 mph N/A   Overcast
12:55 PM 41.0 °F 32.5 °F 37.4 °F 87% 29.94 in 10.0 mi South 17.3 mph 26.5 mph N/A   Overcast
1:15 PM 41.0 °F 32.5 °F 37.4 °F 87% 29.92 in 10.0 mi South 17.3 mph 25.3 mph N/A   Overcast
1:35 PM 41.0 °F 33.5 °F 39.2 °F 93% 29.91 in 10.0 mi South 13.8 mph 25.3 mph N/A   Overcast
5:55 PM 44.6 °F 39.2 °F 39.2 °F 81% 29.72 in - SSW 10.4 mph 17.3 mph N/A   Overcast
6:15 PM 44.6 °F 39.7 °F 39.2 °F 81% 29.72 in - South 9.2 mph - N/A   Overcast
6:35 PM 44.6 °F 39.7 °F 39.2 °F 81% 29.71 in - South 9.2 mph - N/A   Overcast
6:55 PM 44.6 °F 39.7 °F 41.0 °F 87% 29.71 in - SSW 9.2 mph - N/A   Overcast
7:15 PM 46.4 °F 41.9 °F 42.8 °F 87% 29.70 in 1.5 mi SSW 9.2 mph - N/A   Overcast
7:35 PM 44.6 °F 38.8 °F 42.8 °F 93% 29.69 in 0.5 mi SW 11.5 mph - N/A   Overcast
7:55 PM 44.6 °F 39.2 °F 41.0 °F 87% 29.68 in 0.5 mi SW 10.4 mph - N/A   Overcast
8:15 PM 44.6 °F 40.7 °F 41.0 °F 87% 29.67 in 0.8 mi SW 6.9 mph - N/A   Overcast
8:35 PM 44.6 °F 40.2 °F 42.8 °F 93% 29.66 in 0.5 mi SSW 8.1 mph - N/A   Overcast
8:55 PM 44.6 °F 40.2 °F 41.0 °F 87% 29.66 in 0.8 mi South 8.1 mph - N/A   Overcast
9:15 PM 44.6 °F 40.7 °F 41.0 °F 87% 29.66 in 1.0 mi SSW 6.9 mph - N/A   Overcast
9:35 PM 44.6 °F 40.7 °F 42.8 °F 93% 29.65 in 1.2 mi SSW 6.9 mph - N/A   Overcast
9:55 PM 44.6 °F 40.2 °F 41.0 °F 87% 29.64 in 3.0 mi SSW 8.1 mph - N/A   Overcast
10:15 PM 44.6 °F 39.7 °F 42.8 °F 93% 29.63 in 3.0 mi SSW 9.2 mph - N/A   Overcast
10:35 PM 44.6 °F 40.2 °F 42.8 °F 93% 29.62 in 3.0 mi SSW 8.1 mph - N/A   Overcast
10:55 PM 44.6 °F 39.7 °F 42.8 °F 93% 29.61 in 4.0 mi SSW 9.2 mph - N/A   Overcast
11:15 PM 44.6 °F 39.7 °F 42.8 °F 93% 29.61 in 2.0 mi SSW 9.2 mph - N/A   Overcast
11:35 PM 44.6 °F 39.7 °F 42.8 °F 93% 29.61 in 1.0 mi SSW 9.2 mph - N/A   Overcast
11:55 PM 44.6 °F 39.2 °F 41.0 °F 87% 29.61 in 1.0 mi SSW 10.4 mph - N/A   Overcast